2017-008CB

Last updated on Thu Mar 02 2017 00:15:03 GMT+0000 (Coordinated Universal Time)

1 42021U 17008CB 17060.40946557 .00001458 00000-0 67746-4 0 9991 2 42021 97.5115 122.0159 0007354 204.0617 156.0280 15.21604039 1989
UTC large
Height (km)
Speed (km/s)
/
Latitude / Longitude
Inclination (degrees)
Orbital Period (minutes)
Azimuth
Elevation
Range (km)
Doppler Factor

Next 0 passes for location: London (51.5072 / 0.1276)

Sorry there are no passes over London.